NINGXIA-1 2

Satellite information

Favourite Embed

Satellite Type and Status

PAYLOADIN ORBIT

Key statistics

Satellite NINGXIA-1 2 at a glance.

Uptime

2063

Days in orbit

Revolutions

≈ 14.0

Per day

Orbit

LEO

Low Earth Orbit

Inclination

45.0

Latest

Satellite identification and parameters

Extended collection of information and parameters for NINGXIA-1 2.

Object identification

Identified? True

Debris? False

Object name: NINGXIA-1 2

International designator: 2019-076B

Object number (NORAD): 44780

Object ID (CCSDS): 44780

Country: PEOPLES REPUBLIC OF CHINA (PRC)

Current information (Y/N): Y

RCS size: MEDIUM

Orbital parameters

Period: 102.714 minutes

Inclination: 45.01 deg

SMA: 7265.203 km

Apoapsis: 892.313 km

Periapsis: 881.822 km

RAAN: 287.7834 deg

Eccentricy: 0.000722

Argument of periapsis: 302.3636 deg

Mean anomaly: 57.6499 deg

Mean motion: 14.0194562 rev/day

Mean motion (dot): -0.00000118 rev/day2

B* drag term: 0.0000076332 1/REarth

Two-line elements (TLE)

Creation date: July 5, 2025, 10:36 p.m.

Reference frame: TEME

Reference center: EARTH

Epoch: July 5, 2025, 8:16 p.m. UTC

TLE line 0: 0 NINGXIA-1 2

TLE line 1: 1 44780U 19076B 25186.84489957 -.00000118 00000-0 76332-5 0 9999

TLE line 2: 2 44780 45.0100 287.7834 0007220 302.3636 57.6499 14.01945620289256

Live tracking on map

Real-time ground track for satellite NINGXIA-1 2.

In-orbit conjunctions

There are no conjunctions computed for NINGXIA-1 2, at the moment. Check back to stay up to date, as we update our databases every day.

Go to all conjunctions

Associated space launch

Ningxia 1 is a constellation of remote sensing satellites developed by Dongfanghong Satellite Co., Ltd.

NINGXIA-1 2 was lifted into orbit during the mission ‘Long March 6 | Ningxia 1 (x5)’, on board a Long March 6 space rocket.

The launch took place on Nov. 13, 2019, 6:35 a.m. from Launch Complex 16.

For more information about the launch, click the button.

Launch to space Long March 6 | Ningxia 1 (x5)
Long March 6 | Ningxia 1 (x5)

Agency: N/A

Status: Launch Successful

Launch date: Nov. 13, 2019, 6:35 a.m. UTC

Rocket: Long March 6

Launch pad: Launch Complex 16

Location: Taiyuan Satellite Launch Center, People's Republic of China

...

Latest news about this satellite

News about space launch
Long March 6 lofts five Ningxia-1 satellites

News about space launch
Two Chinese satellite launchers lift off three hours apart


Newsletter sign-up

Weekly statistics, charts and insights to help you stay on top of the space industry.